Weather History for Andalusia, AL

Change the Weather History Date:

Saturday, May 31, 2014

  Actual Average (KCEW) Record (KCEW)
Temperature  
Mean Temperature 80 °F -  
Max Temperature 90 °F 89 °F 98 °F (2011)
Min Temperature 71 °F 64 °F 57 °F (1990)
Cooling Degree Days 16    
Growing Degree Days 30 (Base 50)    
Moisture  
Dew Point 69 °F    
Average Humidity 71    
Maximum Humidity 87    
Minimum Humidity 48    
Precipitation  
Precipitation 0.00 in - - ()
Sea Level Pressure  
Sea Level Pressure 30.02 in    
Wind  
Wind Speed 4 mph (SE)    
Max Wind Speed 9 mph    
Max Gust Speed -    
Visibility 10 miles    
Events      
Averages and records for this station are not official NWS values.
T = Trace of Precipitation, MM = Missing Value Source: NWS Daily Summary

Daily Weather History Graph

Daily Weather History Graph

Search for Another Location

Airport:

Trip Planner

Search our weather history database for the weather conditions in past years. The results will help you decide how hot, cold, wet, or windy it might be!

Date:

Astronomy

May. 31, 2014 Rise Set
Actual Time 5:42 AM CDT 7:44 PM CDT
Civil Twilight 5:14 AM CDT 8:12 PM CDT
Nautical Twilight 4:41 AM CDT 8:45 PM CDT
Astronomical Twilight 4:05 AM CDT 9:21 PM CDT
Moon 8:14 AM CDT (5/31) 10:08 PM CDT (5/31)
Length of Visible Light 14h 57m
Length of Day
14h 02m
Waxing Crescent, 8% of the Moon is Illuminated
May 31
Waxing Crescent
Jun 5
First Quarter
Jun 12
Full
Jun 19
Last Quarter
Jun 27
New

Hourly Weather History & Observations

Time (CDT) Temp. Heat Index Dew Point Humidity Pressure Visibility Wind Dir Wind Speed Gust Speed Precip Events Conditions
12:56 AM 73.0 °F - 68.0 °F 84% 30.03 in 10.0 mi ESE 3.5 mph - N/A   Scattered Clouds
1:56 AM 73.0 °F - 68.0 °F 84% 30.03 in 10.0 mi ESE 6.9 mph - 0.00 in   Overcast
2:56 AM 72.0 °F - 68.0 °F 87% 30.00 in 10.0 mi ESE 4.6 mph - N/A   Partly Cloudy
3:56 AM 72.0 °F - 66.9 °F 84% 29.99 in 10.0 mi Calm Calm - N/A   Clear
4:56 AM 71.1 °F - 66.9 °F 87% 30.01 in 10.0 mi Calm Calm - N/A   Partly Cloudy
5:56 AM 72.0 °F - 68.0 °F 87% 30.02 in 10.0 mi Calm Calm - N/A   Scattered Clouds
6:56 AM 73.0 °F - 68.0 °F 84% 30.03 in 10.0 mi ESE 4.6 mph - 0.00 in   Mostly Cloudy
7:56 AM 77.0 °F - 69.1 °F 76% 30.04 in 10.0 mi SE 6.9 mph - N/A   Scattered Clouds
8:56 AM 81.0 °F 84.4 °F 70.0 °F 69% 30.06 in 10.0 mi ESE 5.8 mph - N/A   Clear
9:56 AM 84.9 °F 90.1 °F 71.1 °F 63% 30.05 in 10.0 mi ESE 8.1 mph - N/A   Scattered Clouds
10:42 AM 84.2 °F 89.6 °F 71.6 °F 66% 30.06 in 10.0 mi SSE 6.9 mph - N/A   Mostly Cloudy
10:56 AM 84.9 °F 90.1 °F 71.1 °F 63% 30.05 in 10.0 mi SE 6.9 mph - N/A   Partly Cloudy
11:56 AM 84.9 °F 90.1 °F 71.1 °F 63% 30.04 in 10.0 mi SE 4.6 mph - N/A   Scattered Clouds
12:56 PM 89.1 °F 92.9 °F 68.0 °F 50% 30.03 in 10.0 mi SE 6.9 mph - N/A   Partly Cloudy
1:56 PM 90.0 °F 93.6 °F 68.0 °F 48% 30.00 in 10.0 mi SE 9.2 mph - N/A   Partly Cloudy
2:56 PM 89.1 °F 93.7 °F 69.1 °F 52% 29.99 in 10.0 mi Variable 6.9 mph - N/A   Partly Cloudy
3:56 PM 87.1 °F 91.3 °F 69.1 °F 55% 29.99 in 10.0 mi SSE 4.6 mph - N/A   Partly Cloudy
4:56 PM 87.1 °F 92.0 °F 70.0 °F 57% 29.98 in 10.0 mi Variable 3.5 mph - N/A   Clear
5:56 PM 87.1 °F 91.3 °F 69.1 °F 55% 29.98 in 10.0 mi SSE 3.5 mph - N/A   Clear
6:56 PM 81.0 °F 83.8 °F 68.0 °F 65% 30.00 in 10.0 mi SW 4.6 mph - N/A   Clear
7:56 PM 78.1 °F - 69.1 °F 74% 30.01 in 10.0 mi Calm Calm - N/A   Clear
8:56 PM 75.0 °F - 69.1 °F 82% 30.02 in 10.0 mi Calm Calm - N/A   Clear
9:56 PM 73.9 °F - 70.0 °F 87% 30.03 in 10.0 mi Calm Calm - N/A   Clear
10:56 PM 75.0 °F - 69.1 °F 82% 30.04 in 10.0 mi Calm Calm - N/A   Clear
11:56 PM 73.9 °F - 68.0 °F 82% 30.05 in 10.0 mi East 5.8 mph - N/A   Mostly Cloudy